DW9353 Weather Reports


Display with metric or nautical units.
time (UTC)temp
F
wind
direction
speed
MPH
gust
MPH
rain 1hr
in
rain 24hr
in
rain mn
in
humidity
%
barometer
mb
20180622184539 76 162 2.0 8.0 0.00 0.00 0.00 49 1017.1
20180622184038 76 159 1.0 3.0 0.00 0.00 0.00 48 1017.0
20180622183538 75 187 1.0 4.0 0.00 0.00 0.00 47 1017.1
20180622183040 75 222 2.0 5.0 0.00 0.00 0.00 50 1017.1
20180622182539 75 179 2.0 5.0 0.00 0.00 0.00 46 1017.1
20180622182038 75 90 2.0 6.0 0.00 0.00 0.00 48 1017.1
20180622181538 75 90 2.0 6.0 0.00 0.00 0.00 46 1017.1
20180622181038 75 127 2.0 12.0 0.00 0.00 0.00 48 1017.2
20180622180539 75 144 2.0 12.0 0.00 0.00 0.00 48 1017.2
20180622180040 75 85 2.0 9.0 0.00 0.00 0.00 48 1017.2
20180622175539 75 90 2.0 9.0 0.00 0.00 0.00 48 1017.2
20180622175038 76 134 1.0 6.0 0.00 0.00 0.00 46 1017.3
20180622174538 75 87 2.0 12.0 0.00 0.00 0.00 50 1017.2
20180622174038 74 102 2.0 12.0 0.00 0.00 0.00 48 1017.3
20180622173539 75 131 2.0 7.0 0.00 0.00 0.00 46 1017.2
20180622173039 75 118 2.0 7.0 0.00 0.00 0.00 46 1017.3
20180622172539 75 105 2.0 10.0 0.00 0.00 0.00 48 1017.3
20180622172038 75 98 3.0 10.0 0.00 0.00 0.00 45 1017.3
20180622171538 75 102 2.0 7.0 0.00 0.00 0.00 47 1017.4
20180622171038 75 108 2.0 7.0 0.00 0.00 0.00 46 1017.4
20180622170539 75 99 3.0 10.0 0.00 0.00 0.00 46 1017.4
20180622170040 75 128 2.0 10.0 0.00 0.00 0.00 46 1017.5
20180622165538 75 186 2.0 7.0 0.00 0.00 0.00 44 1017.5
20180622165038 75 188 2.0 6.0 0.00 0.00 0.00 46 1017.6
20180622164539 75 155 2.0 7.0 0.00 0.00 0.00 47 1017.6
20180622164038 75 192 3.0 10.0 0.00 0.00 0.00 44 1017.6
20180622163538 75 246 2.0 10.0 0.00 0.00 0.00 46 1017.6
20180622163040 75 183 2.0 7.0 0.00 0.00 0.00 46 1017.7
20180622162538 75 190 1.0 7.0 0.00 0.00 0.00 48 1017.6
20180622162038 75 153 2.0 7.0 0.00 0.00 0.00 48 1017.6
20180622161539 75 144 2.0 7.0 0.00 0.00 0.00 46 1017.6
20180622161038 75 152 2.0 6.0 0.00 0.00 0.00 47 1017.6
20180622160538 75 122 2.0 6.0 0.00 0.00 0.00 47 1017.6
20180622160039 75 87 2.0 7.0 0.00 0.00 0.00 49 1017.5
20180622155538 74 116 3.0 7.0 0.00 0.00 0.00 49 1017.6
20180622155038 74 103 2.0 7.0 0.00 0.00 0.00 48 1017.6
20180622154538 74 92 2.0 8.0 0.00 0.00 0.00 47 1017.6
20180622154038 74 90 2.0 8.0 0.00 0.00 0.00 51 1017.7
20180622153539 73 65 1.0 7.0 0.00 0.00 0.00 49 1017.7
20180622153040 73 90 2.0 7.0 0.00 0.00 0.00 47 1017.8
20180622152538 73 148 1.0 7.0 0.00 0.00 0.00 50 1017.8
20180622152038 73 115 2.0 6.0 0.00 0.00 0.00 48 1017.8
20180622151538 72 92 3.0 6.0 0.00 0.00 0.00 49 1017.9
20180622151038 73 90 2.0 8.0 0.00 0.00 0.00 48 1017.9
20180622150538 73 100 1.0 8.0 0.00 0.00 0.00 49 1017.9
20180622150040 72 123 1.0 7.0 0.00 0.00 0.00 49 1018.0
20180622145539 72 178 1.0 7.0 0.00 0.00 0.00 49 1018.0
20180622145042 71 250 1.0 4.0 0.00 0.00 0.00 50 1018.0
20180622144538 71 228 1.0 4.0 0.00 0.00 0.00 48 1018.0
20180622144038 71 160 1.0 4.0 0.00 0.00 0.00 48 1018.1
20180622143538 72 78 2.0 5.0 0.00 0.00 0.00 50 1018.0
20180622143040 72 51 1.0 5.0 0.00 0.00 0.00 48 1018.0
20180622142538 71 43 1.0 4.0 0.00 0.00 0.00 50 1018.0
20180622142038 70 67 1.0 5.0 0.00 0.00 0.00 50 1018.0
20180622141538 70 98 1.0 5.0 0.00 0.00 0.00 52 1018.1
20180622141038 69 150 1.0 4.0 0.00 0.00 0.00 49 1018.2
20180622140538 69 36 1.0 4.0 0.00 0.00 0.00 50 1018.2
20180622140040 69 39 1.0 5.0 0.00 0.00 0.00 48 1018.1
20180622135538 69 130 1.0 5.0 0.00 0.00 0.00 48 1018.2
20180622135038 68 159 2.0 5.0 0.00 0.00 0.00 48 1018.1
20180622134538 68 127 2.0 5.0 0.00 0.00 0.00 49 1018.1
20180622134038 69 75 1.0 4.0 0.00 0.00 0.00 49 1018.0
20180622133538 69 64 1.0 4.0 0.00 0.00 0.00 49 1017.9
20180622133040 68 46 1.0 3.0 0.00 0.00 0.00 51 1017.9
20180622132538 67 78 1.0 4.0 0.00 0.00 0.00 51 1017.9
20180622132038 67 108 1.0 4.0 0.00 0.00 0.00 50 1018.0
20180622131538 66 109 1.0 4.0 0.00 0.00 0.00 54 1018.0
20180622131038 66 87 1.0 4.0 0.00 0.00 0.00 52 1018.0
20180622130539 66 91 2.0 4.0 0.00 0.00 0.00 52 1018.0
20180622130040 66 85 1.0 4.0 0.00 0.00 0.00 52 1017.9
20180622125538 65 84 1.0 4.0 0.00 0.00 0.00 53 1018.0
20180622125038 65 99 2.0 4.0 0.00 0.00 0.00 54 1018.0
20180622124538 65 114 1.0 4.0 0.00 0.00 0.00 53 1018.0
20180622124038 65 122 1.0 4.0 0.00 0.00 0.00 56 1018.0
20180622123538 64 85 1.0 4.0 0.00 0.00 0.00 53 1018.0
20180622123040 65 58 1.0 7.0 0.00 0.00 0.00 52 1017.9
20180622122538 65 38 1.0 7.0 0.00 0.00 0.00 55 1017.9
20180622122039 64 42 1.0 4.0 0.00 0.00 0.00 53 1017.8
20180622121538 64 80 1.0 4.0 0.00 0.00 0.00 55 1017.8
20180622121038 63 90 1.0 4.0 0.00 0.00 0.00 60 1017.7
20180622120538 63 94 1.0 3.0 0.00 0.00 0.00 61 1017.7
20180622120040 62 94 1.0 4.0 0.00 0.00 0.00 65 1017.7
20180622115538 62 84 1.0 4.0 0.00 0.00 0.00 64 1017.5
20180622115038 62 71 1.0 4.0 0.00 0.00 0.00 65 1017.5
20180622114538 61 60 1.0 4.0 0.00 0.00 0.00 67 1017.4
20180622114038 60 94 1.0 4.0 0.00 0.00 0.00 72 1017.3
20180622113538 60 211 0.0 4.0 0.00 0.00 0.00 73 1017.3
20180622113040 59 78 1.0 3.0 0.00 0.00 0.00 79 1017.2
20180622112539 58 86 1.0 3.0 0.00 0.00 0.00 77 1017.1
20180622112038 57 129 0.0 1.0 0.00 0.00 0.00 82 1017.0
20180622111538 57 130 0.0 1.0 0.00 0.00 0.00 85 1017.0
20180622111038 56 0 0.0 0.0 0.00 0.00 0.00 88 1016.7
20180622110538 55 0 0.0 0.0 0.00 0.00 0.00 89 1016.7
20180622110040 54 0 0.0 0.0 0.00 0.00 0.00 90 1016.6
20180622105538 54 0 0.0 0.0 0.00 0.00 0.00 92 1016.7
20180622105038 53 0 0.0 0.0 0.00 0.00 0.00 93 1016.6
20180622104538 52 0 0.0 0.0 0.00 0.00 0.00 97 1016.6
20180622104038 51 0 0.0 0.0 0.00 0.00 0.00 97 1016.5
20180622103538 51 0 0.0 0.0 0.00 0.00 0.00 97 1016.4
20180622103040 50 0 0.0 0.0 0.00 0.00 0.00 97 1016.4
20180622102538 50 0 0.0 0.0 0.00 0.00 0.00 97 1016.3
20180622102038 49 0 0.0 0.0 0.00 0.00 0.00 97 1016.2
20180622101541 47 0 0.0 0.0 0.00 0.00 0.00 96 1016.2
20180622101038 46 0 0.0 0.0 0.00 0.00 0.00 96 1016.1
20180622100538 46 0 0.0 0.0 0.00 0.00 0.00 96 1016.0
20180622100040 45 0 0.0 0.0 0.00 0.00 0.00 95 1016.1
20180622095538 45 0 0.0 0.0 0.00 0.00 0.00 95 1016.0
20180622095038 45 0 0.0 0.0 0.00 0.00 0.00 95 1016.0
20180622094538 46 0 0.0 0.0 0.00 0.00 0.00 95 1015.9
20180622094038 46 0 0.0 0.0 0.00 0.00 0.00 95 1015.8
20180622093538 46 0 0.0 0.0 0.00 0.00 0.00 95 1015.7
20180622093040 46 0 0.0 0.0 0.00 0.00 0.00 94 1015.6
20180622092538 46 0 0.0 0.0 0.00 0.00 0.00 95 1015.5
20180622092038 46 0 0.0 0.0 0.00 0.00 0.00 95 1015.4
20180622091538 46 0 0.0 0.0 0.00 0.00 0.00 94 1015.2
20180622091038 46 0 0.0 0.0 0.00 0.00 0.00 94 1015.2
20180622090538 46 0 0.0 0.0 0.00 0.00 0.00 95 1015.2
20180622090040 46 0 0.0 0.0 0.00 0.00 0.00 95 1015.1
20180622085538 46 0 0.0 0.0 0.00 0.00 0.00 94 1015.0
20180622085038 46 0 0.0 0.0 0.00 0.00 0.00 94 1014.9
20180622084538 47 0 0.0 0.0 0.00 0.00 0.00 94 1014.8
20180622084039 47 0 0.0 0.0 0.00 0.00 0.00 94 1014.8
20180622083538 47 0 0.0 0.0 0.00 0.00 0.00 94 1014.7
20180622083040 47 0 0.0 0.0 0.00 0.00 0.00 94 1014.7
20180622082538 47 0 0.0 0.0 0.00 0.00 0.00 94 1014.5
20180622082039 48 0 0.0 0.0 0.00 0.00 0.00 94 1014.5
20180622081538 48 0 0.0 0.0 0.00 0.00 0.00 94 1014.6
20180622081038 48 0 0.0 0.0 0.00 0.00 0.00 94 1014.5
20180622080538 48 0 0.0 0.0 0.00 0.00 0.00 94 1014.5
20180622080040 48 0 0.0 0.0 0.00 0.00 0.00 94 1014.5
20180622075538 48 0 0.0 0.0 0.00 0.00 0.00 94 1014.4
20180622075038 49 0 0.0 0.0 0.00 0.00 0.00 94 1014.4
20180622074538 49 0 0.0 0.0 0.00 0.00 0.00 94 1014.4
20180622074039 49 0 0.0 0.0 0.00 0.00 0.00 94 1014.4
20180622073538 49 0 0.0 0.0 0.00 0.00 0.00 93 1014.3
20180622073040 49 0 0.0 0.0 0.00 0.00 0.00 94 1014.3
20180622072538 50 0 0.0 0.0 0.00 0.00 0.00 93 1014.3
20180622072038 50 0 0.0 0.0 0.00 0.00 0.00 93 1014.3
20180622071538 50 0 0.0 0.0 0.00 0.00 0.00 93 1014.2
20180622071038 50 0 0.0 0.0 0.00 0.00 0.00 93 1014.2
20180622070538 51 0 0.0 0.0 0.00 0.00 0.00 94 1014.2
20180622070041 51 0 0.0 0.0 0.00 0.00 0.00 94 1014.0
20180622065538 51 130 0.0 1.0 0.00 0.00 0.00 94 1014.0
20180622065038 51 129 0.0 2.0 0.00 0.00 0.00 94 1014.0
20180622064538 51 129 0.0 2.0 0.00 0.00 0.00 94 1014.0
20180622064038 52 0 0.0 0.0 0.00 0.00 0.00 94 1014.0
20180622063538 52 0 0.0 0.0 0.00 0.00 0.00 94 1013.9
20180622063040 52 0 0.0 0.0 0.00 0.00 0.00 94 1013.9
20180622062538 52 0 0.0 0.0 0.00 0.00 0.00 94 1013.9
20180622062038 52 0 0.0 0.0 0.00 0.00 0.00 95 1013.8
20180622061538 52 0 0.0 0.0 0.00 0.00 0.00 95 1013.7
20180622061038 52 0 0.0 0.0 0.00 0.00 0.00 95 1013.7
20180622060538 52 0 0.0 0.0 0.00 0.00 0.00 94 1013.6
20180622060042 53 0 0.0 0.0 0.00 0.00 0.00 94 1013.6
20180622055538 53 0 0.0 0.0 0.00 0.00 0.00 95 1013.6
20180622055038 53 0 0.0 0.0 0.00 0.00 0.00 95 1013.7
20180622054538 53 0 0.0 0.0 0.00 0.00 0.00 95 1013.6
20180622054038 53 0 0.0 0.0 0.00 0.00 0.00 94 1013.6
20180622053538 53 124 0.0 2.0 0.00 0.00 0.00 94 1013.6
20180622053039 53 124 0.0 2.0 0.00 0.00 0.00 94 1013.7
20180622052538 53 0 0.0 0.0 0.00 0.00 0.00 93 1013.6
20180622052038 53 0 0.0 0.0 0.00 0.00 0.00 94 1013.6
20180622051538 53 0 0.0 0.0 0.00 0.00 0.00 94 1013.5
20180622051038 53 0 0.0 0.0 0.00 0.00 0.00 94 1013.5
20180622050538 53 0 0.0 0.0 0.00 0.00 0.00 94 1013.4
20180622050040 53 0 0.0 0.0 0.00 0.00 0.00 93 1013.4
20180622045538 53 0 0.0 0.0 0.00 0.00 0.00 92 1013.4
20180622045038 53 0 0.0 0.0 0.00 0.00 0.00 92 1013.3
20180622044538 54 0 0.0 0.0 0.00 0.00 0.00 92 1013.4
20180622044038 54 0 0.0 0.0 0.00 0.00 0.00 92 1013.4
20180622043538 54 0 0.0 0.0 0.00 0.00 0.00 91 1013.3
20180622043040 54 0 0.0 0.0 0.00 0.00 0.00 91 1013.3
20180622042538 54 0 0.0 0.0 0.00 0.00 0.00 90 1013.4
20180622042038 54 0 0.0 0.0 0.00 0.00 0.00 90 1013.4
20180622041538 54 0 0.0 0.0 0.00 0.00 0.00 89 1013.2
20180622041038 54 0 0.0 0.0 0.00 0.00 0.00 89 1013.2
20180622040538 54 0 0.0 0.0 0.00 0.00 0.00 89 1013.2
20180622040041 55 0 0.0 0.0 0.00 0.00 0.00 89 1013.1
20180622035538 55 0 0.0 0.0 0.00 0.00 0.00 89 1012.9
20180622035038 55 0 0.0 0.0 0.00 0.00 0.00 89 1012.9
20180622034538 55 0 0.0 0.0 0.00 0.00 0.00 89 1012.9
20180622034038 55 0 0.0 0.0 0.00 0.00 0.00 89 1012.8
20180622033538 56 0 0.0 0.0 0.00 0.00 0.00 89 1012.7
20180622033039 56 0 0.0 0.0 0.00 0.00 0.00 89 1012.7
20180622032538 56 0 0.0 0.0 0.00 0.00 0.00 89 1012.7
20180622032038 56 0 0.0 0.0 0.00 0.00 0.00 88 1012.7
20180622031538 56 0 0.0 0.0 0.00 0.00 0.00 88 1012.6
20180622031038 56 123 0.0 1.0 0.00 0.00 0.00 88 1012.6
20180622030538 56 124 0.0 2.0 0.00 0.00 0.00 88 1012.6
20180622030039 56 123 0.0 2.0 0.00 0.00 0.00 87 1012.6
20180622025538 57 0 0.0 0.0 0.00 0.00 0.00 87 1012.5
20180622025038 57 123 0.0 1.0 0.00 0.00 0.00 87 1012.5
20180622024537 57 123 0.0 1.0 0.00 0.00 0.00 86 1012.4
20180622024038 57 0 0.0 0.0 0.00 0.00 0.00 85 1012.3
20180622023538 57 0 0.0 0.0 0.00 0.00 0.00 85 1012.2
20180622023040 58 0 0.0 0.0 0.00 0.00 0.00 85 1012.2
20180622022538 58 0 0.0 0.0 0.00 0.00 0.00 85 1012.1
20180622022038 58 0 0.0 0.0 0.00 0.00 0.00 84 1012.0
20180622021538 58 0 0.0 0.0 0.00 0.00 0.00 84 1011.9
20180622021038 58 123 0.0 3.0 0.00 0.00 0.00 84 1011.9
20180622020538 58 123 0.0 3.0 0.00 0.00 0.00 84 1011.8
20180622020040 59 123 0.0 1.0 0.00 0.00 0.00 83 1011.8
20180622015538 59 0 0.0 0.0 0.00 0.00 0.00 82 1011.7
20180622015038 59 0 0.0 0.0 0.00 0.00 0.00 82 1011.5
20180622014538 59 0 0.0 0.0 0.00 0.00 0.00 81 1011.5
20180622014038 59 124 0.0 1.0 0.00 0.00 0.00 81 1011.5
20180622013538 60 124 0.0 1.0 0.00 0.00 0.00 80 1011.5
20180622013040 60 123 0.0 1.0 0.00 0.00 0.00 80 1011.4
20180622012538 60 0 0.0 0.0 0.00 0.00 0.00 79 1011.3
20180622012038 60 123 0.0 1.0 0.00 0.00 0.00 78 1011.3
20180622011538 61 123 0.0 1.0 0.00 0.00 0.00 78 1011.2
20180622011038 61 0 0.0 0.0 0.00 0.00 0.00 77 1011.1
20180622010538 62 0 0.0 0.0 0.00 0.00 0.00 76 1011.0
20180622010039 62 0 0.0 0.0 0.00 0.00 0.00 75 1010.9
20180622005538 62 0 0.0 0.0 0.00 0.00 0.00 74 1010.8
20180622005038 63 0 0.0 0.0 0.00 0.00 0.00 73 1010.7
20180622004538 64 0 0.0 0.0 0.00 0.00 0.00 72 1010.6
20180622004038 64 0 0.0 0.0 0.00 0.00 0.00 71 1010.5
20180622003538 64 0 0.0 0.0 0.00 0.00 0.00 69 1010.5
20180622003040 65 0 0.0 0.0 0.00 0.00 0.00 68 1010.4
20180622002538 65 0 0.0 0.0 0.00 0.00 0.00 67 1010.2
20180622002038 66 0 0.0 0.0 0.00 0.00 0.00 67 1010.2
20180622001538 66 0 0.0 0.0 0.00 0.00 0.00 66 1010.2
20180622001038 67 0 0.0 0.0 0.00 0.00 0.00 65 1010.1
20180622000538 67 123 0.0 1.0 0.00 0.00 0.00 64 1010.1
20180622000041 68 124 0.0 2.0 0.00 0.00 0.00 63 1010.0
20180621235537 68 124 0.0 2.0 0.00 0.00 0.00 62 1010.0
20180621235038 68 123 0.0 1.0 0.00 0.00 0.00 62 1009.9
20180621234538 69 126 0.0 2.0 0.00 0.00 0.00 61 1009.8
20180621234038 69 92 0.0 3.0 0.00 0.00 0.00 61 1009.8
20180621233538 69 80 0.0 3.0 0.00 0.00 0.00 60 1009.7
20180621233040 69 100 0.0 3.0 0.00 0.00 0.00 60 1009.6
20180621232538 70 96 0.0 3.0 0.00 0.00 0.00 60 1009.6
20180621232038 70 110 0.0 2.0 0.00 0.00 0.00 60 1009.4
20180621231538 70 105 1.0 7.0 0.00 0.00 0.00 60 1009.3
20180621231039 70 108 1.0 7.0 0.00 0.00 0.00 59 1009.2
20180621230538 71 110 1.0 6.0 0.00 0.00 0.00 59 1009.1
20180621230040 71 110 1.0 6.0 0.00 0.00 0.00 59 1009.1
20180621225538 71 116 1.0 3.0 0.00 0.00 0.00 58 1009.0
20180621225038 71 101 1.0 6.0 0.00 0.00 0.00 57 1008.9
20180621224538 71 77 1.0 6.0 0.00 0.00 0.00 57 1008.9
20180621224038 72 78 1.0 5.0 0.00 0.00 0.00 56 1008.9
20180621223538 72 92 1.0 5.0 0.00 0.00 0.00 56 1008.8
20180621223040 72 83 1.0 7.0 0.00 0.00 0.00 57 1008.8
20180621222538 72 86 2.0 8.0 0.00 0.00 0.00 56 1008.7
20180621222038 72 93 2.0 8.0 0.00 0.00 0.00 56 1008.6
20180621221538 73 90 2.0 6.0 0.00 0.00 0.00 56 1008.6
20180621221038 73 103 2.0 6.0 0.00 0.00 0.00 56 1008.4
20180621220538 73 104 3.0 10.0 0.00 0.03 0.00 55 1008.3
20180621220040 73 94 2.0 10.0 0.00 0.03 0.00 54 1008.3
20180621215538 74 107 2.0 9.0 0.00 0.03 0.00 53 1008.2
20180621215038 74 109 3.0 9.0 0.00 0.03 0.00 53 1008.1
20180621214537 74 97 2.0 8.0 0.00 0.03 0.00 53 1008.1
20180621214038 75 105 2.0 8.0 0.00 0.03 0.00 53 1008.1
20180621213538 76 99 2.0 7.0 0.00 0.03 0.00 52 1008.1
20180621213040 76 86 2.0 7.0 0.00 0.03 0.00 50 1008.0
20180621212538 77 99 1.0 6.0 0.00 0.03 0.00 50 1008.0
20180621212038 78 101 1.0 5.0 0.00 0.03 0.00 50 1007.9
20180621211537 79 334 1.0 4.0 0.00 0.03 0.00 44 1007.8
20180621211038 79 307 1.0 4.0 0.00 0.03 0.00 36 1007.7
20180621210538 79 309 1.0 7.0 0.00 0.03 0.00 37 1007.7
20180621210040 80 343 1.0 7.0 0.00 0.03 0.00 39 1007.7
20180621205537 80 109 1.0 4.0 0.00 0.03 0.00 40 1007.7
20180621205038 80 192 1.0 4.0 0.00 0.03 0.00 39 1007.7
20180621204538 80 236 1.0 6.0 0.00 0.03 0.00 39 1007.7
20180621204038 80 247 1.0 6.0 0.00 0.03 0.00 40 1007.7
20180621203538 80 237 2.0 6.0 0.00 0.03 0.00 39 1007.7
20180621203040 79 231 2.0 6.0 0.00 0.03 0.00 44 1007.7
20180621202538 79 137 1.0 6.0 0.00 0.03 0.00 41 1007.8
20180621202037 78 93 0.0 6.0 0.00 0.03 0.00 46 1007.8
20180621201538 78 84 1.0 5.0 0.00 0.03 0.00 46 1007.8
20180621201038 78 82 1.0 5.0 0.00 0.03 0.00 41 1007.7
20180621200538 77 75 0.0 2.0 0.00 0.03 0.00 45 1007.8
20180621200040 77 357 0.0 2.0 0.00 0.03 0.00 47 1007.8
20180621195538 77 301 1.0 4.0 0.00 0.03 0.00 49 1007.9
20180621195037 77 279 1.0 7.0 0.00 0.03 0.00 44 1007.9
20180621194538 78 250 1.0 7.0 0.00 0.03 0.00 44 1007.9
20180621194038 78 128 1.0 3.0 0.00 0.03 0.00 42 1007.8
20180621193538 78 102 1.0 3.0 0.00 0.03 0.00 45 1007.9
20180621193040 78 97 1.0 4.0 0.00 0.03 0.00 46 1008.0
20180621192538 79 95 1.0 4.0 0.00 0.03 0.00 42 1007.9
20180621192038 78 81 1.0 4.0 0.00 0.03 0.00 42 1008.0
20180621191538 78 89 1.0 4.0 0.00 0.03 0.00 44 1008.0
20180621191038 78 86 1.0 5.0 0.00 0.03 0.00 46 1008.0
20180621190538 78 87 1.0 5.0 0.00 0.03 0.00 43 1008.1
20180621190039 78 81 1.0 5.0 0.00 0.03 0.00 45 1008.1
20180621185538 78 286 1.0 6.0 0.00 0.03 0.00 47 1008.1
20180621185038 77 264 1.0 6.0 0.00 0.03 0.00 49 1008.1